Location: Cannifist
(18.2333°N, 63.0167°W)
Time: 14:11:23
(UTC+00:00)

Cosmos 405 - Pass Details

Date: 27 February 2020
Orbit: 451 x 465 km, 81.3° (Epoch: 08 April)

Event Time Altitude Azimuth Distance (km) Brightness Sun altitude
Rises 23:36:20 0° 350° (N) 2,491 6.8 -19.5°
Reaches altitude 10° 23:38:25 10° 347° (NNW) 1,615 5.8 -20.0°
Maximum altitude 23:41:56 66° 265° (W) 508 3.3 -20.8°
Drops below altitude 10° 23:45:25 10° 182° (S) 1,610 5.7 -21.6°
Sets 23:47:30 0° 180° (S) 2,482 6.7 -22.1°
